Flag for Germany Weather past 2 weeks in Melsungen, Hesse, Germany

Now
49 °F

Overcast.


Feels Like: 47 °F
Forecast: 36 / 44 °F
Wind: 5 mph from Southwest

Location: Fritzlar

Current Time: Mar 1, 2015 at 6:49:33 PM

Latest Report: Mar 1, 2015 at 5:00 PM


Visibility: 19 mi

Pressure: 29.62 "Hg

Humidity: 59%

Dew point: 35 °F

Location of MelsungenLocation

Historic Weather in Melsungen — Graph

°F

Melsungen temperature yesterday

Maximum temperature yesterday: 43 °F (at 4:00 PM)
Minimum temperature yesterday: 30 °F (at 7:00 AM)
Average temperature yesterday: 36 °F

Past Weeks' High & Low Weather Summary

 TemperatureHumidityPressure
High50 °F (Mar 1, 4:00 PM)97% (Feb 18, 6:00 AM)30.78 "Hg (Feb 18, 6:00 AM)
Low21 °F (Feb 16, 7:00 AM)51% (Feb 22, 4:00 PM)29.41 "Hg (Feb 21, 7:00 AM)
Average36 °F82%30.00 "Hg
* Reported Feb 14 5:00 PM — Mar 1 5:00 PM, Melsungen, Weather by CustomWeather, © 2015

Note: Actual official high and low records may vary slightly from our data, if they occured in-between our weather recording intervals... More about our weather records

Advertising

Melsungen weather history for previous 24 hours

 ConditionsComfort  
Time TempWeatherWind HumidityBarometerVisibility
5:00 PM
Sun, Mar 1
49 °FOvercast.5 mph59%29.62 "Hg19 mi
4:00 PM50 °FOvercast.6 mph59%29.63 "Hg16 mi
3:00 PM46 °FOvercast.6 mph81%29.64 "Hg12 mi
2:00 PM44 °FOvercast.7 mph86%29.65 "Hg12 mi
1:00 PM43 °FOvercast.8 mph86%29.66 "Hg9 mi
12:00 PM41 °FLow clouds.7 mph90%29.67 "Hg7 mi
11:00 AM39 °FLow clouds.8 mph90%29.68 "Hg7 mi
10:00 AM38 °FDrizzle. Low clouds.3 mph91%29.67 "Hg4 mi
9:00 AM37 °FDrizzle. Low clouds.6 mph89%29.68 "Hg5 mi
8:00 AM37 °FDrizzle. Low clouds.7 mph89%29.68 "Hg5 mi
7:00 AM36 °FDrizzle. Low clouds.7 mph89%29.70 "Hg4 mi
6:00 AM38 °FLight rain. Overcast.9 mph78%29.70 "Hg9 mi
5:00 AM39 °FOvercast.8 mph69%29.72 "Hg9 mi
4:00 AM38 °FOvercast.6 mph71%29.76 "Hg9 mi
3:00 AM38 °FOvercast.5 mph70%29.80 "Hg9 mi
2:00 AM36 °FOvercast.7 mph70%29.84 "Hg12 mi
1:00 AM33 °FPassing clouds.3 mph76%29.89 "Hg12 mi
12:00 AM35 °FPassing clouds.N/A69%29.93 "Hg12 mi
11:00 PM
Sat, Feb 28
34 °FPassing clouds.3 mph74%29.94 "Hg12 mi
10:00 PM35 °FPassing clouds.3 mph73%29.98 "Hg12 mi
9:00 PM36 °FPassing clouds.3 mph70%30.01 "Hg12 mi
8:00 PM34 °FPassing clouds.3 mph72%30.02 "Hg16 mi
7:00 PM37 °FPassing clouds.3 mph67%30.03 "Hg17 mi
6:00 PM40 °FPassing clouds.5 mph68%30.03 "Hg19 mi
Weather by CustomWeather, © 2015

See weather overviewHow to use our weather pages